Location: Wien
(48.2084°N, 16.3725°E)
Time: 06:10:15
(UTC+02:00)

ISS - Pass Details

Date: 23 March 2021
Orbit: 417 x 422 km, 51.6° (Epoch: 12 May)

Event Time Altitude Azimuth Distance (km) Brightness Sun altitude
Rises 20:20:20 0° 273° (W) 2,369 1.2 -21.3°
Reaches altitude 10° 20:22:30 10° 280° (W) 1,505 0.1 -21.6°
Enters shadow 20:25:43 45° 353° (N) 581 -2.9 -22.1°
